325P/Yang-Gao (2022)

Japanese version
Home page
Updated on May 29, 2022

---------------------------------------------------------------------

* Profile

* Orbital Elements

Epoch 2022 Jan. 21.0 TT = JDT 2459600.5                                         
T 2022 Mar. 29.20710 TT                                 Rudenko                 
q   1.4318538            (2000.0)            P               Q                  
n   0.14906224     Peri.  343.71028     -0.46909767     +0.83739887             
a   3.5228241      Node   257.56216     -0.77483568     -0.54267946             
e   0.5935494      Incl.   16.69618     -0.42376532     +0.06528506             
P   6.61                                                                        
From 1137 observations 1951 May 28-2022 Feb. 28, mean residual 1".4.            
     Nongravitational parameters A1 = +0.15, A2 = -0.0271.                      

* Finding Charts

* Magnitudes Graph

        m1 = 16.5 + 5 log d + 10.0 log r

        * Gray curve is:  m1 = 13.5 + 5 log d + 15.0 log r

---------------------------------------------------------------------

The orbital elements are published on M.P.E.C. 2022-E133.
The charts are made with StellaNavigator Ver.10 (AstroArts).
The magnitudes graphs are made with Comet for Windows.

---------------------------------------------------------------------

Copyright(C) Seiichi Yoshida (comet@aerith.net). All rights reserved.